�N����,����,�~����,�C��,���x,�C��,����,���ϕ���,�ő�u�ԕ���,�ő厞����,���˗�,�I�_���x,�n�����x,�ő啗���N��,DTYPE
"21/10/11","00:10",0.0,20.5,87.1,1015.6,315.5,1.0,1.4,308.1,0.00,18.3,23.3,"00:05:28",1
"21/10/11","00:20",0.0,20.7,87.7,1015.6,295.4,1.1,1.6,310.4,0.00,18.6,23.3,"00:12:40",1
"21/10/11","00:30",0.0,20.5,87.9,1015.2,310.1,0.8,1.7,309.0,0.00,18.5,23.2,"00:21:52",1
"21/10/11","00:40",0.0,20.4,88.1,1014.9,315.7,1.1,1.4,335.1,0.00,18.4,23.2,"00:33:12",1
"21/10/11","00:50",0.0,20.3,88.5,1015.2,276.9,0.8,1.2,271.8,0.00,18.4,23.3,"00:46:32",1
"21/10/11","01:00",0.0,20.3,88.7,1014.9,290.7,0.7,1.2,314.2,0.00,18.4,23.2,"00:57:12",1
"21/10/11","01:10",0.0,20.4,88.9,1014.7,302.7,1.1,1.7,312.5,0.00,18.5,23.2,"01:00:02",1
"21/10/11","01:20",0.0,20.3,89.0,1015.2,327.2,1.1,1.6,316.2,0.00,18.5,23.2,"01:10:08",1
"21/10/11","01:30",0.0,19.9,89.2,1015.4,312.3,0.8,1.2,329.3,0.00,18.1,23.2,"01:20:56",1
"21/10/11","01:40",0.0,19.5,89.4,1015.2,297.2,0.6,0.9,316.9,0.00,17.8,23.0,"01:34:24",1
"21/10/11","01:50",0.0,19.2,89.6,1015.2,292.4,0.7,0.9,304.9,0.00,17.5,23.2,"01:42:24",1
"21/10/11","02:00",0.0,19.3,89.8,1014.9,288.5,0.7,1.1,280.9,0.00,17.6,23.1,"01:53:12",1
"21/10/11","02:10",0.0,19.2,89.9,1015.2,292.0,0.2,0.9,272.4,0.00,17.5,23.0,"02:00:08",1
"21/10/11","02:20",0.0,19.3,90.3,1014.9,299.1,0.8,1.3,314.1,0.00,17.7,23.0,"02:17:52",1
"21/10/11","02:30",0.0,19.2,90.5,1014.9,322.1,0.7,1.2,310.1,0.00,17.6,23.0,"02:20:02",1
"21/10/11","02:40",0.0,19.0,90.6,1014.9,295.8,0.7,1.3,322.7,0.00,17.5,22.9,"02:30:32",1
"21/10/11","02:50",0.0,18.8,91.0,1015.2,275.7,0.5,1.3,298.8,0.00,17.3,22.9,"02:40:02",1
"21/10/11","03:00",0.0,19.1,91.1,1015.2,309.5,1.0,1.2,313.4,0.00,17.7,22.7,"02:50:24",1
"21/10/11","03:10",0.0,18.8,91.4,1014.7,289.1,0.5,1.2,325.0,0.00,17.4,22.7,"03:02:24",1
"21/10/11","03:20",0.0,18.9,91.7,1014.9,304.7,0.7,1.4,327.1,0.00,17.6,22.8,"03:18:08",1
"21/10/11","03:30",0.0,19.0,91.8,1014.7,316.6,1.0,1.7,320.8,0.00,17.7,22.7,"03:28:40",1
"21/10/11","03:40",0.0,18.7,91.9,1014.7,321.8,0.7,1.2,329.3,0.00,17.4,22.7,"03:31:44",1
"21/10/11","03:50",0.0,18.8,92.2,1014.7,297.2,0.8,1.3,325.2,0.00,17.5,22.5,"03:49:28",1
"21/10/11","04:00",0.0,18.9,92.2,1014.7,311.8,0.6,1.3,311.9,0.00,17.6,22.8,"03:52:32",1
"21/10/11","04:10",0.0,18.6,92.3,1014.2,305.5,0.6,1.1,316.4,0.00,17.4,22.4,"04:03:36",1
"21/10/11","04:20",0.0,18.5,92.4,1014.7,288.0,0.5,0.9,282.0,0.00,17.3,22.4,"04:10:40",1
"21/10/11","04:30",0.0,18.6,92.7,1014.5,323.2,1.0,1.3,333.3,0.00,17.4,22.7,"04:22:48",1
"21/10/11","04:40",0.0,18.5,92.8,1014.7,323.9,1.0,1.6,333.0,0.00,17.4,22.6,"04:33:20",1
"21/10/11","04:50",0.0,18.5,93.0,1014.7,325.9,1.1,1.4,333.8,0.00,17.4,22.5,"04:40:08",1
"21/10/11","05:00",0.0,18.3,93.1,1014.7,304.8,1.0,1.2,316.6,0.00,17.2,22.4,"04:50:08",1
"21/10/11","05:10",0.0,18.1,93.3,1014.7,287.7,0.6,0.9,263.3,0.00,17.0,22.5,"05:03:12",1
"21/10/11","05:20",0.0,18.1,93.5,1014.7,306.5,0.8,1.6,317.9,0.00,17.1,22.5,"05:19:04",1
"21/10/11","05:30",0.0,18.2,93.5,1014.7,315.9,1.0,1.4,321.9,0.00,17.2,22.3,"05:21:36",1
"21/10/11","05:40",0.0,18.0,93.6,1014.2,297.1,0.7,1.2,321.2,0.00,17.0,22.4,"05:30:02",1
"21/10/11","05:50",0.0,18.1,93.8,1014.5,311.7,1.0,1.3,317.6,0.00,17.1,22.2,"05:45:44",1
"21/10/11","06:00",0.0,18.4,93.8,1014.7,313.4,1.0,1.4,318.0,0.00,17.4,22.2,"05:54:08",1
"21/10/11","06:10",0.0,18.3,93.8,1014.5,299.7,0.7,1.1,318.5,0.00,17.3,22.5,"06:00:16",1
"21/10/11","06:20",0.0,18.4,94.0,1014.2,311.4,1.0,1.4,316.4,0.00,17.5,22.1,"06:16:08",1
"21/10/11","06:30",0.0,18.5,94.2,1014.5,295.4,0.8,1.1,320.7,0.00,17.6,22.2,"06:22:56",1
"21/10/11","06:40",0.0,18.7,94.2,1014.7,291.9,0.6,1.0,283.1,0.00,17.8,22.1,"06:33:36",1
"21/10/11","06:50",0.0,19.2,94.3,1014.5,327.2,0.5,0.9,331.5,0.00,18.3,22.2,"06:42:16",1
"21/10/11","07:00",0.0,19.9,94.2,1014.2,323.8,0.8,1.3,335.7,0.01,19.0,22.1,"06:57:04",1
"21/10/11","07:10",0.0,20.3,94.3,1014.5,333.6,1.0,1.3,345.3,0.03,19.4,22.1,"07:03:28",1
"21/10/11","07:20",0.0,21.3,94.2,1014.5,336.6,0.3,1.0,331.2,0.05,20.4,22.2,"07:11:36",1
"21/10/11","07:30",0.0,22.2,93.8,1014.2,245.4,0.0,0.4,306.1,0.04,21.2,22.1,"07:20:16",1
"21/10/11","07:40",0.0,22.3,93.7,1014.5,116.8,0.1,0.5,67.4,0.04,21.3,22.3,"07:38:40",1
"21/10/11","07:50",0.0,22.1,93.5,1014.7,57.1,0.3,1.4,338.3,0.05,21.0,22.1,"07:49:52",1
"21/10/11","08:00",0.0,21.9,93.3,1014.7,346.7,0.7,1.4,352.2,0.07,20.8,22.2,"07:50:56",1
"21/10/11","08:10",0.0,22.4,93.4,1014.9,76.9,0.2,1.0,334.4,0.08,21.3,22.3,"08:00:24",1
"21/10/11","08:20",0.0,23.0,92.8,1014.7,275.7,0.1,0.5,213.1,0.12,21.8,22.2,"08:14:24",1
"21/10/11","08:30",0.0,23.1,92.0,1015.2,280.5,0.5,1.0,251.3,0.12,21.8,22.3,"08:26:48",1
"21/10/11","08:40",0.0,23.5,91.6,1014.7,162.2,0.2,1.0,327.9,0.14,22.1,22.2,"08:30:40",1
"21/10/11","08:50",0.0,24.1,90.7,1014.5,175.6,0.3,1.1,187.4,0.20,22.5,22.2,"08:42:08",1
"21/10/11","09:00",0.0,24.6,87.6,1014.2,154.3,0.5,1.4,189.2,0.23,22.4,22.4,"08:53:04",1
"21/10/11","09:10",0.0,25.1,84.1,1014.2,161.3,0.6,1.3,114.3,0.22,22.3,22.3,"09:01:52",1
"21/10/11","09:20",0.0,25.0,79.4,1013.8,173.2,1.1,2.4,206.2,0.16,21.2,22.5,"09:11:52",1
"21/10/11","09:30",0.0,25.2,76.4,1013.5,130.1,0.8,1.9,123.1,0.16,20.8,22.5,"09:26:48",1
"21/10/11","09:40",0.0,25.5,74.7,1013.3,199.7,0.8,1.9,111.5,0.20,20.7,22.5,"09:38:56",1
"21/10/11","09:50",0.0,26.0,72.7,1013.3,120.0,0.5,1.2,104.8,0.25,20.8,22.6,"09:42:40",1
"21/10/11","10:00",0.0,26.0,70.7,1013.3,222.4,1.0,2.0,190.0,0.18,20.3,22.7,"09:55:28",1
"21/10/11","10:10",0.0,26.1,70.4,1013.0,200.2,0.5,1.4,116.8,0.15,20.3,22.6,"10:00:56",1
"21/10/11","10:20",0.0,26.1,70.2,1013.0,153.0,0.7,1.8,229.5,0.16,20.3,22.7,"10:16:40",1
"21/10/11","10:30",0.0,26.2,68.7,1013.3,130.6,0.6,1.6,125.1,0.21,20.0,22.7,"10:21:20",1
"21/10/11","10:40",0.0,27.2,67.8,1013.3,127.0,0.7,1.8,147.3,0.38,20.8,22.6,"10:32:16",1
"21/10/11","10:50",0.0,27.8,64.5,1013.5,144.0,1.0,2.2,69.2,0.34,20.5,22.6,"10:41:36",1
"21/10/11","11:00",0.0,28.1,63.5,1013.3,153.9,1.0,2.5,85.0,0.43,20.6,22.8,"10:59:52",1
"21/10/11","11:10",0.0,28.8,61.1,1013.8,143.1,0.8,2.4,127.7,0.50,20.6,22.8,"11:00:02",1
"21/10/11","11:20",0.0,29.1,61.8,1014.0,142.2,1.1,2.2,108.6,0.52,21.1,22.9,"11:10:08",1
"21/10/11","11:30",0.0,28.8,61.3,1014.0,162.7,1.3,3.3,240.6,0.50,20.7,23.1,"11:23:04",1
"21/10/11","11:40",0.0,29.8,59.8,1013.8,130.2,0.7,2.1,66.5,0.52,21.2,23.1,"11:31:12",1
"21/10/11","11:50",0.0,29.4,61.2,1013.8,166.3,1.0,2.4,215.0,0.31,21.2,23.2,"11:47:36",1
"21/10/11","12:00",0.0,29.1,60.1,1013.8,245.0,0.6,1.4,249.4,0.32,20.6,23.4,"11:53:44",1
"21/10/11","12:10",0.0,29.1,60.7,1013.8,215.6,1.5,4.1,220.8,0.44,20.8,23.3,"12:09:04",1
"21/10/11","12:20",0.0,28.8,60.2,1013.3,211.2,1.0,3.2,214.9,0.17,20.4,23.4,"12:10:56",1
"21/10/11","12:30",0.0,27.8,63.2,1013.0,224.4,1.7,3.5,224.9,0.09,20.2,23.5,"12:22:24",1
"21/10/11","12:40",0.0,27.5,65.3,1012.6,204.9,1.5,3.7,216.7,0.10,20.4,23.4,"12:30:16",1
"21/10/11","12:50",0.0,27.4,66.2,1012.3,202.4,1.6,3.3,236.4,0.15,20.6,23.4,"12:47:36",1
"21/10/11","13:00",0.0,27.7,66.1,1012.3,219.4,1.5,3.2,241.1,0.14,20.8,23.5,"12:54:56",1
"21/10/11","13:10",0.0,28.1,65.8,1011.9,212.3,1.3,3.1,232.5,0.22,21.1,23.5,"13:00:56",1
"21/10/11","13:20",0.0,27.9,65.5,1011.9,245.7,1.2,3.3,224.1,0.16,20.9,23.7,"13:10:08",1
"21/10/11","13:30",0.0,28.5,64.5,1011.9,292.3,1.0,2.6,230.3,0.33,21.2,23.7,"13:20:02",1
"21/10/11","13:40",0.0,28.3,62.3,1011.6,234.4,2.5,4.5,212.9,0.23,20.4,23.8,"13:35:12",1
"21/10/11","13:50",0.0,28.7,63.1,1011.6,247.0,1.7,4.5,239.8,0.28,21.0,23.7,"13:40:32",1
"21/10/11","14:00",0.0,28.7,62.4,1011.4,287.4,1.1,3.3,274.0,0.23,20.8,23.6,"13:53:52",1
"21/10/11","14:10",0.0,28.4,63.2,1011.4,325.2,1.1,2.8,344.6,0.16,20.8,23.8,"14:08:24",1
"21/10/11","14:20",0.0,28.0,64.7,1011.6,301.0,1.1,3.4,351.8,0.09,20.8,23.7,"14:11:28",1
"21/10/11","14:30",0.0,27.8,65.3,1011.4,287.8,1.1,2.4,353.0,0.09,20.7,23.7,"14:20:48",1
"21/10/11","14:40",0.0,27.8,65.6,1010.7,267.4,1.1,2.5,224.0,0.11,20.8,24.1,"14:37:04",1
"21/10/11","14:50",0.0,28.0,64.8,1010.9,283.7,0.8,1.8,256.3,0.15,20.8,23.8,"14:42:00",1
"21/10/11","15:00",0.0,28.0,65.0,1010.9,320.2,1.3,3.6,11.9,0.15,20.8,23.9,"14:58:56",1
"21/10/11","15:10",0.0,27.9,65.5,1010.9,324.7,1.3,3.5,348.5,0.13,20.9,23.8,"15:03:36",1
"21/10/11","15:20",0.0,27.7,65.9,1010.4,320.9,1.2,2.7,342.2,0.10,20.8,23.8,"15:10:24",1
"21/10/11","15:30",0.0,27.4,66.4,1010.7,299.1,1.2,3.2,307.0,0.08,20.6,24.1,"15:25:04",1
"21/10/11","15:40",0.0,27.3,67.0,1010.7,312.1,1.1,1.9,334.3,0.05,20.7,24.0,"15:30:08",1
"21/10/11","15:50",0.0,27.2,67.5,1010.2,1.3,1.0,2.4,0.9,0.04,20.7,24.1,"15:42:40",1
"21/10/11","16:00",0.0,27.2,68.2,1010.4,357.4,0.3,1.2,332.7,0.04,20.9,24.1,"15:51:12",1
"21/10/11","16:10",0.0,27.1,68.8,1010.7,300.7,0.5,1.0,332.4,0.03,20.9,24.0,"16:09:20",1
"21/10/11","16:20",0.0,26.8,70.6,1010.7,317.6,0.6,1.4,341.6,0.02,21.0,24.0,"16:13:28",1
"21/10/11","16:30",0.0,26.6,72.4,1010.9,359.8,0.5,1.2,345.3,0.02,21.3,23.9,"16:28:00",1
"21/10/11","16:40",0.0,26.2,74.9,1010.9,338.4,0.8,1.9,342.4,0.01,21.4,24.0,"16:33:20",1
"21/10/11","16:50",0.0,25.9,76.3,1010.9,342.0,1.0,1.7,347.8,0.00,21.4,24.0,"16:43:12",1
"21/10/11","17:00",0.0,25.5,77.3,1010.7,318.1,0.8,2.0,343.3,0.00,21.3,24.1,"16:54:56",1
"21/10/11","17:10",0.0,25.3,78.3,1011.6,303.4,0.7,1.6,341.9,0.00,21.3,24.0,"17:09:12",1
"21/10/11","17:20",0.0,25.1,79.0,1011.4,319.8,1.1,2.2,343.1,0.00,21.2,24.1,"17:10:40",1
"21/10/11","17:30",0.0,25.1,79.2,1011.4,316.8,1.0,1.8,338.8,0.00,21.3,24.1,"17:21:44",1
"21/10/11","17:40",0.0,24.9,79.6,1011.4,339.9,0.7,1.6,338.9,0.00,21.2,23.9,"17:33:12",1
"21/10/11","17:50",0.0,24.7,80.4,1011.6,322.0,0.8,1.4,324.2,0.00,21.1,23.8,"17:45:52",1
"21/10/11","18:00",0.0,24.5,81.3,1011.6,309.7,0.7,1.3,340.0,0.00,21.1,24.0,"17:52:48",1
"21/10/11","18:10",0.0,24.2,82.0,1011.9,290.7,0.8,1.2,315.2,0.00,21.0,23.9,"18:00:08",1
"21/10/11","18:20",0.0,24.0,82.6,1012.1,304.6,0.7,1.6,342.0,0.00,20.9,23.9,"18:19:04",1
"21/10/11","18:30",0.0,24.0,83.0,1012.3,327.5,1.3,2.6,329.3,0.00,21.0,24.2,"18:24:32",1
"21/10/11","18:40",0.0,23.8,83.3,1012.6,277.4,0.8,1.3,318.6,0.00,20.8,23.8,"18:30:48",1
"21/10/11","18:50",0.0,23.7,83.5,1012.6,269.4,0.8,1.7,243.2,0.00,20.8,23.9,"18:41:28",1
"21/10/11","19:00",0.0,23.6,83.8,1012.8,289.8,0.7,1.7,247.4,0.00,20.7,23.8,"18:56:08",1
"21/10/11","19:10",0.0,23.5,84.0,1012.8,321.8,0.8,1.4,337.9,0.00,20.7,23.9,"19:02:40",1
"21/10/11","19:20",0.0,23.4,84.6,1013.0,310.7,1.0,1.3,280.2,0.00,20.7,24.0,"19:19:36",1
"21/10/11","19:30",0.0,23.3,85.0,1013.0,308.6,1.1,1.7,313.8,0.00,20.7,23.6,"19:29:52",1
"21/10/11","19:40",0.0,23.2,85.2,1013.8,312.2,1.2,2.4,349.8,0.00,20.6,24.0,"19:32:32",1
"21/10/11","19:50",0.0,23.2,85.4,1013.5,294.1,0.7,1.6,317.9,0.00,20.7,23.6,"19:47:44",1
"21/10/11","20:00",0.0,23.2,85.7,1013.5,312.1,1.2,1.9,349.2,0.00,20.7,23.8,"19:54:00",1
"21/10/11","20:10",0.0,23.2,85.8,1013.5,321.5,1.5,2.4,322.3,0.00,20.7,23.9,"20:05:20",1
"21/10/11","20:20",0.0,23.2,85.7,1013.3,317.3,1.7,2.5,301.7,0.00,20.7,23.7,"20:17:28",1
"21/10/11","20:30",0.0,23.2,85.6,1013.8,301.9,1.2,2.2,330.7,0.00,20.7,23.7,"20:20:16",1
"21/10/11","20:40",0.0,23.2,85.4,1013.5,320.3,1.3,2.2,331.7,0.00,20.7,23.8,"20:38:48",1
"21/10/11","20:50",0.0,23.1,85.4,1013.5,296.7,1.0,1.6,349.1,0.00,20.6,23.6,"20:44:08",1
"21/10/11","21:00",0.0,23.0,85.4,1014.0,287.9,1.0,1.3,319.1,0.00,20.5,23.7,"20:53:04",1
"21/10/11","21:10",0.0,23.0,85.5,1014.0,338.7,0.8,1.3,341.3,0.00,20.5,23.5,"21:02:40",1
"21/10/11","21:20",0.0,22.7,85.6,1014.0,289.6,0.5,1.1,259.4,0.00,20.2,23.5,"21:12:56",1
"21/10/11","21:30",0.0,22.8,86.1,1014.0,336.2,1.0,1.8,342.5,0.00,20.4,23.7,"21:23:12",1
"21/10/11","21:40",0.0,22.9,86.3,1014.7,334.9,1.5,2.8,330.6,0.00,20.5,23.7,"21:32:48",1
"21/10/11","21:50",0.0,23.0,86.4,1014.2,327.9,1.5,2.7,316.8,0.00,20.6,23.6,"21:42:16",1
"21/10/11","22:00",0.0,23.1,86.5,1014.5,332.1,1.3,2.6,335.0,0.00,20.8,23.4,"21:55:36",1
"21/10/11","22:10",0.0,23.2,86.5,1014.7,330.3,1.6,2.8,330.2,0.00,20.9,23.4,"22:04:24",1
"21/10/11","22:20",0.0,23.3,86.5,1014.5,320.5,1.5,2.9,335.6,0.00,21.0,23.6,"22:19:28",1
"21/10/11","22:30",0.0,23.3,86.5,1014.5,331.0,1.6,2.6,347.3,0.00,21.0,23.5,"22:20:32",1
"21/10/11","22:40",0.0,23.2,86.5,1014.5,338.7,1.0,1.8,335.9,0.00,20.9,23.5,"22:31:28",1
"21/10/11","22:50",0.0,23.2,86.5,1014.5,339.1,1.2,2.1,345.7,0.00,20.9,23.4,"22:44:16",1
"21/10/11","23:00",0.0,23.0,86.7,1014.9,332.8,1.3,2.6,346.0,0.00,20.7,23.4,"22:59:20",1
"21/10/11","23:10",0.0,22.9,87.0,1014.2,328.3,1.2,2.1,340.7,0.00,20.7,23.6,"23:02:40",1
"21/10/11","23:20",0.0,22.8,87.2,1014.7,319.7,1.3,3.4,332.9,0.00,20.6,23.6,"23:10:48",1
"21/10/11","23:30",0.0,22.7,87.3,1014.7,319.6,1.3,2.5,337.9,0.00,20.5,23.2,"23:22:48",1
"21/10/11","23:40",0.0,22.7,87.3,1014.7,322.8,1.3,2.5,337.3,0.00,20.5,23.4,"23:37:52",1
"21/10/11","23:50",0.0,22.6,87.2,1014.9,318.3,1.7,3.3,329.4,0.00,20.4,23.3,"23:48:24",1
"21/10/11","24:00",0.0,22.6,87.1,1014.7,315.7,1.7,3.4,331.6,0.00,20.4,23.3,"23:52:08",1
